DW4993 Weather Reports


Display with metric or nautical units.
time (UTC)temp
F
wind
direction
speed
MPH
gust
MPH
rain 1hr
in
rain 24hr
in
rain mn
in
humidity
%
barometer
mb
20190921214803 68 106 3.0 10.0 0.00 0.00 0.01 42 1008.6
20190921214302 68 45 2.0 10.0 0.00 0.00 0.01 43 1008.6
20190921213802 68 64 3.0 7.0 0.00 0.00 0.01 43 1008.7
20190921213302 68 82 2.0 3.0 0.00 0.00 0.01 42 1008.7
20190921212802 69 327 2.0 7.0 0.00 0.00 0.01 42 1008.7
20190921212302 69 67 3.0 6.0 0.00 0.00 0.01 42 1008.8
20190921211802 69 47 2.0 6.0 0.00 0.00 0.01 42 1008.9
20190921211303 69 343 2.0 5.0 0.00 0.00 0.01 42 1008.9
20190921210802 69 314 2.0 6.0 0.00 0.00 0.01 41 1009.0
20190921210302 69 347 2.0 6.0 0.00 0.00 0.01 42 1009.2
20190921205803 68 284 2.0 6.0 0.00 0.00 0.01 41 1009.2
20190921205302 68 342 1.0 3.0 0.00 0.00 0.01 42 1009.2
20190921204802 67 340 2.0 3.0 0.00 0.00 0.01 43 1009.3
20190921204302 67 289 2.0 5.0 0.00 0.00 0.01 42 1009.4
20190921203803 67 309 2.0 6.0 0.00 0.00 0.01 44 1009.4
20190921203302 66 271 2.0 3.0 0.00 0.00 0.01 42 1009.5
20190921202802 66 274 3.0 6.0 0.00 0.00 0.01 42 1009.5
20190921202302 66 31 2.0 5.0 0.00 0.00 0.01 43 1009.5
20190921201803 66 318 2.0 3.0 0.00 0.00 0.01 41 1009.6
20190921201302 66 24 2.0 3.0 0.00 0.00 0.01 41 1009.7
20190921200802 66 293 2.0 3.0 0.00 0.00 0.01 39 1009.7
20190921200302 66 280 2.0 8.0 0.00 0.00 0.01 36 1009.7
20190921195802 66 293 3.0 8.0 0.00 0.00 0.01 37 1009.8
20190921195302 66 300 2.0 8.0 0.00 0.00 0.01 38 1009.8
20190921194803 66 321 2.0 5.0 0.00 0.00 0.01 36 1009.8
20190921194302 66 288 3.0 7.0 0.00 0.00 0.01 32 1009.8
20190921193803 65 309 2.0 7.0 0.00 0.00 0.01 35 1009.9
20190921193302 65 282 3.0 8.0 0.00 0.00 0.01 37 1010.0
20190921192803 65 278 4.0 8.0 0.00 0.00 0.01 38 1010.0
20190921192302 64 274 2.0 6.0 0.00 0.00 0.01 41 1010.1
20190921191803 64 294 5.0 8.0 0.00 0.00 0.01 42 1010.2
20190921191302 63 272 3.0 3.0 0.00 0.00 0.01 44 1010.3
20190921190802 62 264 3.0 7.0 0.00 0.00 0.01 43 1010.3
20190921190302 63 264 3.0 7.0 0.00 0.00 0.01 43 1010.4
20190921185802 62 260 3.0 8.0 0.00 0.00 0.01 44 1010.4
20190921185302 63 259 4.0 8.0 0.00 0.00 0.01 43 1010.4
20190921184803 63 285 2.0 6.0 0.00 0.00 0.01 44 1010.4
20190921184302 63 259 3.0 8.0 0.00 0.00 0.01 44 1010.5
20190921183802 62 270 4.0 8.0 0.00 0.00 0.01 45 1010.5
20190921183302 62 276 5.0 12.0 0.00 0.00 0.01 44 1010.5
20190921182803 61 287 7.0 12.0 0.00 0.00 0.01 46 1010.6
20190921182302 61 272 3.0 12.0 0.00 0.00 0.01 49 1010.6
20190921181802 60 281 5.0 8.0 0.00 0.00 0.01 49 1010.7
20190921181302 60 262 5.0 10.0 0.00 0.00 0.01 50 1010.8
20190921180803 60 257 5.0 9.0 0.00 0.00 0.01 50 1010.9
20190921180303 60 278 3.0 7.0 0.00 0.00 0.01 51 1011.0
20190921175802 59 262 3.0 8.0 0.00 0.00 0.01 52 1011.1
20190921175302 58 259 5.0 10.0 0.00 0.00 0.01 53 1011.2
20190921174803 58 277 4.0 9.0 0.00 0.00 0.01 55 1011.3
20190921174302 58 249 6.0 10.0 0.00 0.00 0.01 54 1011.4
20190921173802 58 260 5.0 10.0 0.00 0.00 0.01 54 1011.5
20190921173303 58 194 6.0 9.0 0.00 0.00 0.01 54 1011.5
20190921172804 58 241 5.0 7.0 0.00 0.00 0.01 55 1011.5
20190921172302 58 258 5.0 7.0 0.00 0.00 0.01 56 1011.6
20190921171803 57 231 5.0 7.0 0.00 0.00 0.01 56 1011.7
20190921171302 57 242 5.0 9.0 0.00 0.00 0.01 56 1011.8
20190921170802 56 248 6.0 10.0 0.00 0.00 0.01 57 1011.9
20190921170302 56 233 7.0 13.0 0.00 0.00 0.01 56 1012.0
20190921165802 56 240 6.0 13.0 0.00 0.00 0.01 58 1012.1
20190921165302 56 248 7.0 13.0 0.00 0.00 0.01 59 1012.2
20190921164802 55 247 6.0 12.0 0.00 0.00 0.01 61 1012.2
20190921164302 54 236 7.0 12.0 0.00 0.00 0.01 61 1012.3
20190921163802 54 250 6.0 12.0 0.00 0.00 0.01 62 1012.3
20190921163303 54 243 6.0 12.0 0.00 0.00 0.01 62 1012.3
20190921162803 54 264 5.0 10.0 0.00 0.00 0.01 63 1012.4
20190921162304 54 237 4.0 10.0 0.00 0.00 0.01 65 1012.5
20190921161803 53 250 6.0 9.0 0.00 0.00 0.01 65 1012.6
20190921161303 53 233 5.0 9.0 0.00 0.00 0.01 68 1012.6
20190921160804 52 227 3.0 8.0 0.00 0.00 0.01 70 1012.6
20190921160303 52 254 3.0 5.0 0.00 0.00 0.01 71 1012.6
20190921155804 51 221 3.0 5.0 0.00 0.00 0.01 73 1012.6
20190921155303 50 236 3.0 5.0 0.00 0.00 0.01 73 1012.6
20190921154803 50 251 4.0 7.0 0.00 0.00 0.01 75 1012.7
20190921154302 50 242 3.0 7.0 0.00 0.00 0.01 76 1012.8
20190921153803 49 252 2.0 7.0 0.00 0.00 0.01 77 1012.8
20190921153302 49 268 2.0 5.0 0.00 0.00 0.01 78 1012.8
20190921152802 48 275 3.0 6.0 0.00 0.00 0.01 79 1012.8
20190921151804 47 272 2.0 5.0 0.00 0.00 0.01 82 1012.7
20190921151304 47 279 2.0 3.0 0.00 0.00 0.01 84 1012.7
20190921150802 46 282 2.0 3.0 0.00 0.00 0.01 85 1012.6
20190921150303 46 283 1.0 3.0 0.00 0.00 0.01 86 1012.5
20190921145802 45 288 1.0 3.0 0.00 0.00 0.01 88 1012.5
20190921145302 45 307 0.0 2.0 0.00 0.00 0.01 89 1012.5
20190921144802 44 307 1.0 3.0 0.00 0.00 0.01 89 1012.4
20190921144302 44 307 1.0 3.0 0.00 0.00 0.01 90 1012.4
20190921143802 44 307 1.0 2.0 0.00 0.00 0.01 91 1012.4
20190921143302 43 307 0.0 2.0 0.00 0.00 0.01 92 1012.4
20190921142802 43 307 0.0 1.0 0.00 0.00 0.01 92 1012.3
20190921142303 43 307 0.0 1.0 0.00 0.00 0.01 93 1012.3
20190921141802 43 307 0.0 1.0 0.00 0.00 0.01 92 1012.4
20190921141302 43 307 0.0 0.0 0.00 0.00 0.01 93 1012.5
20190921140802 42 307 0.0 0.0 0.00 0.00 0.01 93 1012.5
20190921140304 42 307 0.0 1.0 0.00 0.00 0.01 93 1012.5
20190921135803 42 307 0.0 1.0 0.00 0.00 0.01 93 1012.6
20190921023304 49 299 2.0 3.0 0.00 0.00 0.00 82 1012.9
20190921022804 49 296 2.0 3.0 0.00 0.00 0.00 82 1012.8
20190921022304 50 284 2.0 6.0 0.00 0.00 0.00 82 1012.8
20190921021804 50 298 2.0 6.0 0.00 0.00 0.00 82 1012.8
20190921021304 50 274 2.0 6.0 0.00 0.00 0.00 82 1012.8
20190921020804 50 285 2.0 3.0 0.00 0.00 0.00 82 1012.7
20190921020305 50 277 2.0 3.0 0.00 0.00 0.00 82 1012.6
20190921015804 51 289 2.0 3.0 0.00 0.00 0.00 82 1012.5
20190921015304 51 295 2.0 3.0 0.00 0.00 0.00 82 1012.4
20190921014804 51 297 3.0 6.0 0.00 0.00 0.00 82 1012.3
20190921014304 51 296 2.0 6.0 0.00 0.00 0.00 81 1012.3
20190921013804 51 275 3.0 6.0 0.00 0.00 0.00 81 1012.3
20190921013304 51 288 3.0 6.0 0.00 0.00 0.00 81 1012.3
20190921012804 51 291 2.0 6.0 0.00 0.00 0.00 81 1012.3
20190921011802 51 302 2.0 6.0 0.00 0.00 0.00 80 1012.3
20190921011302 51 283 1.0 3.0 0.00 0.00 0.00 81 1012.3
20190921010802 51 281 2.0 6.0 0.00 0.00 0.00 80 1012.3
20190921010302 51 296 1.0 6.0 0.00 0.00 0.00 80 1012.3
20190921005803 52 300 1.0 3.0 0.00 0.00 0.00 80 1012.3
20190921005302 52 295 1.0 3.0 0.00 0.00 0.00 80 1012.2
20190921004802 52 279 1.0 3.0 0.00 0.00 0.00 79 1012.2
20190921004302 52 284 1.0 3.0 0.00 0.00 0.00 78 1012.2
20190921003803 52 312 1.0 3.0 0.00 0.00 0.00 76 1012.2
20190921003303 53 334 1.0 3.0 0.00 0.00 0.00 75 1012.2
20190921002802 53 53 2.0 3.0 0.00 0.00 0.00 73 1012.2
20190921002302 53 355 2.0 3.0 0.00 0.00 0.00 72 1012.1
20190921001802 53 45 2.0 5.0 0.00 0.00 0.00 71 1012.1
20190921001302 54 87 2.0 3.0 0.00 0.00 0.00 69 1012.1
20190921000802 54 90 2.0 5.0 0.00 0.00 0.00 67 1011.9
20190921000302 54 104 3.0 10.0 0.00 0.00 0.00 65 1011.8
20190920235802 55 83 7.0 13.0 0.00 0.00 0.00 64 1011.7
20190920235302 55 62 6.0 13.0 0.00 0.00 0.00 62 1011.7
20190920234803 55 59 6.0 10.0 0.00 0.00 0.00 62 1011.6
20190920234302 55 49 5.0 10.0 0.00 0.00 0.00 64 1011.4
20190920233802 55 60 5.0 10.0 0.00 0.00 0.00 65 1011.3
20190920233302 55 60 2.0 10.0 0.00 0.00 0.00 65 1011.3
20190920232802 56 65 2.0 6.0 0.00 0.00 0.00 64 1011.3
20190920232302 56 66 3.0 7.0 0.00 0.00 0.00 63 1011.2
20190920231802 56 63 3.0 7.0 0.00 0.00 0.00 62 1011.1
20190920231302 56 77 3.0 8.0 0.00 0.00 0.00 60 1011.0
20190920230802 56 63 6.0 12.0 0.00 0.00 0.00 59 1011.2
20190920230302 57 56 5.0 12.0 0.00 0.00 0.00 58 1011.1
20190920225802 57 62 5.0 12.0 0.00 0.00 0.00 57 1011.1
20190920225302 57 73 4.0 12.0 0.00 0.00 0.00 58 1011.0
20190920224802 57 53 5.0 12.0 0.00 0.00 0.00 59 1010.9
20190920224301 57 107 6.0 12.0 0.00 0.00 0.00 58 1010.8
20190920223802 58 51 7.0 12.0 0.00 0.00 0.00 58 1010.8
20190920223302 58 73 6.0 12.0 0.00 0.00 0.00 57 1010.7
20190920222802 58 77 6.0 12.0 0.00 0.00 0.00 58 1010.6
20190920222302 58 59 6.0 12.0 0.00 0.00 0.00 57 1010.6
20190920221802 58 68 7.0 12.0 0.00 0.00 0.00 57 1010.5
20190920221302 59 62 5.0 12.0 0.00 0.00 0.00 59 1010.5
20190920220802 59 70 5.0 12.0 0.00 0.00 0.00 60 1010.4
20190920220302 59 70 6.0 10.0 0.00 0.00 0.00 59 1010.4
20190920215802 59 67 5.0 10.0 0.00 0.00 0.00 61 1010.5
20190920215302 58 62 6.0 10.0 0.00 0.00 0.00 61 1010.5